모두
RAAF Williams Airport (Point Cook, Victoria) YMPC 기상
|
Point Cook, Victoria (YMPC)
맑은 하늘
바람이 붐 |
|
22 °C |
There is no TAF data available at YMPC. Showing TAF data for YMEN (16 mi 동북).
MEB 터미널 지역 예측(YMPC에 대한 데이터 없음)
| Here is the undecoded forecast: 2026/08/31 21:26 YMEN 312126Z 3121/0112 01014KT CAVOK FM312300 01018G28KT CAVOK BECMG 0102/0103 01025G42KT CAVOK FM010500 01018G28KT CAVOK FM010700 34012KT CAVOK FM010900 30010KT 9999 -RA NSC RMK FM312100 SEV TURB BLW 5000FT TL010400 FM010400 MOD TURB BLW 5000FT TL011100 T 12 17 21 21 Q 1020 1018 1014 1012 |
최근 YMPC METAR 이력
| Date | Time (AEST) | Flight Rules | Wind Dir. | Speed | Type | Height AGL (ft) | Visibility | Temp (°C) | Temp (°F) | Dew Point (°C) | Dew Point (°F) | Rel. Humid. | Pressure | Density Altitude | Remarks |
|---|---|---|---|---|---|---|---|---|---|---|---|---|---|---|---|
| 01-9월 | 14:00 | VFR | 340° | 19 kt | 10000 meters | 22° | 71° | 7° | 44° | 38% | 1013 mb | 860 ft | |||
| 01-9월 | 13:00 | VFR | 350° | 13 kt | 10000 meters | 22° | 71° | 8° | 46° | 41% | 1014 mb | 831 ft | |||
| 01-9월 | 12:00 | VFR | 340° | 14 kt | 10000 meters | 22° | 71° | 7° | 44° | 38% | 1015 mb | 801 ft | |||
| 01-9월 | 11:00 | VFR | 360° | 16 kt | 10000 meters | 20° | 68° | 8° | 46° | 46% | 1016 mb | 532 ft | |||
| 01-9월 | 10:00 | VFR | 20° | 17 kt | 10000 meters | 17° | 62° | 10° | 50° | 63% | 1018 mb | 112 ft | |||
| 01-9월 | 09:00 | VFR | 10° | 14 kt | 10000 meters | 15° | 59° | 10° | 50° | 72% | 1019 mb | -157 ft | |||
| 01-9월 | 08:00 | VFR | 20° | 7 kt | 10000 meters | 13° | 55° | 10° | 50° | 82% | 1020 mb | -427 ft | |||
| 01-9월 | 07:00 | VFR | 10° | 5 kt | 10000 meters | 12° | 53° | 9° | 48° | 82% | 1020 mb | -547 ft | |||
| 01-9월 | 06:00 | VFR | 360° | 7 kt | 10000 meters | 12° | 53° | 10° | 50° | 88% | 1020 mb | -547 ft | |||
| 01-9월 | 05:00 | VFR | 10° | 6 kt | 10000 meters | 12° | 53° | 10° | 50° | 88% | 1020 mb | -547 ft | |||
| 01-9월 | 04:00 | VFR | 360° | 8 kt | 10000 meters | 11° | 51° | 9° | 48° | 87% | 1021 mb | -696 ft | |||
| 01-9월 | 03:00 | VFR | 10° | 6 kt | 10000 meters | 10° | 50° | 9° | 48° | 93% | 1022 mb | -846 ft | |||
| 01-9월 | 02:00 | VFR | 350° | 7 kt | 10000 meters | 9° | 48° | 7° | 44° | 87% | 1023 mb | -995 ft | |||
| 01-9월 | 01:00 | VFR | 350° | 3 kt | 10000 meters | 8° | 46° | 7° | 44° | 93% | 1023 mb | -1,115 ft | |||
| 01-9월 | 00:00 | VFR | 60° | 3 kt | 10000 meters | 9° | 48° | 7° | 44° | 87% | 1024 mb | -1,025 ft | |||
| 31-8월 | 23:00 | VFR | 60° | 3 kt | 10000 meters | 9° | 48° | 8° | 46° | 93% | 1025 mb | -1,054 ft | |||
| 31-8월 | 22:00 | VFR | 60° | 3 kt | 10000 meters | 9° | 48° | 8° | 46° | 93% | 1026 mb | -1,084 ft | |||
| 31-8월 | 21:00 | VFR | 60° | 3 kt | 10000 meters | 9° | 48° | 8° | 46° | 93% | 1026 mb | -1,084 ft | |||
| 31-8월 | 20:00 | VFR | 60° | 1 kt | 10000 meters | 9° | 48° | 8° | 46° | 93% | 1026 mb | -1,084 ft | |||
| 31-8월 | 19:00 | VFR | 120° | 2 kt | 10000 meters | 11° | 51° | 10° | 50° | 94% | 1026 mb | -844 ft | |||
| 31-8월 | 18:00 | VFR | 130° | 3 kt | 10000 meters | 11° | 51° | 9° | 48° | 87% | 1027 mb | -873 ft | |||
| 31-8월 | 17:00 | VFR | 130° | 3 kt | 10000 meters | 13° | 55° | 9° | 48° | 77% | 1027 mb | -633 ft | |||
| 31-8월 | 16:00 | VFR | 160° | 4 kt | 10000 meters | 13° | 55° | 9° | 48° | 77% | 1027 mb | -633 ft | |||
| 31-8월 | 15:00 | VFR | 140° | 5 kt | 10000 meters | 13° | 55° | 9° | 48° | 77% | 1028 mb | -663 ft |
로그인
| 귀하의 브라우저는 지원되지 않습니다.. 브라우저를 업그레이드하세요 |
